sat.trackr.live / text

‹ back to catalog

STARLINK-36597

NORAD 67613 · 2026-018AA

PAYLOAD ACTIVE UNKNOWN

§ Identity

Operator
Country
US
Launch date
2026-01-29
Launch site
AFWTR
Launch vehicle
Mass (kg)
RCS (m²)

Purposes: comms

External: N2YO · Heavens-Above · Gunter

§ Orbital elements

Epoch: 2026-09-19T22:57:21.355488Z

Period
93.91 min
Inclination
97.2867°
Eccentricity
0.0000535
Mean motion
15.33442003 rev/d
Perigee alt
465.2 km
Apogee alt
465.9 km
Semi-major
6,843.7 km
B*
4.7616e-4
RAAN
326.3708°
Arg perigee
91.7427°
Mean anomaly
268.3877°
Rev number
3,710

§ Raw data

STARLINK-365971 67613U 26018AA  26262.95649717  .00015327  00000+0  47616-3 0  99902 67613  97.2867 326.3708 0000535  91.7427 268.3877 15.33442003 37103

JSON: /api/v1/satellites/67613 · /tle

For live sub-satellite position, see the globe view (requires WebGL).

§ Visibility from observer

Set your observer location to see the next 7 days of passes ≥ 10°. The values pass through the URL so the page stays shareable.

No JS? Fill the form by hand. The geolocation button needs JavaScript.